IGO104 VABB-VIDP

Flight info

Callsign IGO104
Flight time 1h 50m
Altitude 37000
Route ANOLI2A ISRIS Q1 UKASO UKASO7E
Aircraft A20N/M-SDGHIRWXY/LB1D1

Departure

Time 2026-04-29 14:53
Airport Chhatrapati Shivaji Maharaj International Airport (VABB)

Arrival

Time 2026-04-29 16:43
Airport Indira Gandhi International Airport (VIDP)
Time Latitude Longitude Altitude Speed Heading
2026-04-29 14:19 19.09147 72.85362 30 ft 0 kts 360°
2026-04-29 14:34 19.09145 72.85362 30 ft 1 kts 360°
2026-04-29 14:34 19.09133 72.85363 30 ft 2 kts 350°
2026-04-29 14:35 19.09118 72.85365 30 ft 2 kts 355°
2026-04-29 14:35 19.09104 72.85367 29 ft 2 kts 353°
2026-04-29 14:35 19.09095 72.85368 29 ft 1 kts 22°
2026-04-29 14:35 19.09090 72.85363 29 ft 0 kts 82°
2026-04-29 14:36 19.09090 72.85357 29 ft 1 kts 91°
2026-04-29 14:36 19.09090 72.85355 29 ft 0 kts 90°
2026-04-29 14:42 19.09090 72.85366 29 ft 2 kts 90°
2026-04-29 14:42 19.09091 72.85400 29 ft 7 kts 89°
2026-04-29 14:42 19.09092 72.85474 29 ft 11 kts 89°
2026-04-29 14:43 19.09092 72.85552 29 ft 8 kts 89°
2026-04-29 14:43 19.09090 72.85587 29 ft 3 kts 118°
2026-04-29 14:43 19.09058 72.85606 29 ft 6 kts 160°
2026-04-29 14:43 19.09027 72.85648 28 ft 8 kts 94°
2026-04-29 14:44 19.09027 72.85711 28 ft 9 kts 89°
2026-04-29 14:44 19.09028 72.85782 28 ft 10 kts 89°
2026-04-29 14:44 19.09029 72.85861 29 ft 10 kts 89°
2026-04-29 14:44 19.09030 72.85937 31 ft 10 kts 89°
2026-04-29 14:45 19.09031 72.86011 31 ft 10 kts 89°
2026-04-29 14:45 19.09032 72.86093 31 ft 11 kts 89°
2026-04-29 14:45 19.09033 72.86181 31 ft 12 kts 89°
2026-04-29 14:45 19.09035 72.86274 31 ft 10 kts 89°
2026-04-29 14:46 19.09036 72.86352 31 ft 9 kts 89°
2026-04-29 14:46 19.09037 72.86404 31 ft 5 kts 89°
2026-04-29 14:46 19.09037 72.86414 31 ft 0 kts 89°
2026-04-29 14:46 19.09037 72.86425 31 ft 2 kts 89°
2026-04-29 14:47 19.09037 72.86451 31 ft 4 kts 89°
2026-04-29 14:47 19.09038 72.86504 31 ft 10 kts 89°
2026-04-29 14:47 19.09039 72.86580 31 ft 10 kts 89°
2026-04-29 14:47 19.09040 72.86633 31 ft 10 kts 89°
2026-04-29 14:48 19.09041 72.86746 31 ft 12 kts 89°
2026-04-29 14:48 19.09042 72.86839 30 ft 13 kts 89°
2026-04-29 14:48 19.09044 72.86945 28 ft 15 kts 89°
2026-04-29 14:48 19.09045 72.87060 28 ft 15 kts 90°
2026-04-29 14:49 19.09046 72.87178 28 ft 16 kts 89°
2026-04-29 14:49 19.09049 72.87297 28 ft 16 kts 89°
2026-04-29 14:49 19.09050 72.87419 28 ft 16 kts 89°
2026-04-29 14:49 19.09052 72.87541 28 ft 16 kts 89°
2026-04-29 14:50 19.09054 72.87663 28 ft 16 kts 89°
2026-04-29 14:50 19.09055 72.87782 31 ft 15 kts 89°
2026-04-29 14:50 19.09057 72.87893 33 ft 14 kts 89°
2026-04-29 14:50 19.09058 72.87990 34 ft 11 kts 89°
2026-04-29 14:51 19.09046 72.88042 34 ft 6 kts 142°
2026-04-29 14:51 19.08998 72.88054 34 ft 7 kts 178°
2026-04-29 14:51 19.08944 72.88049 34 ft 8 kts 194°
2026-04-29 14:51 19.08898 72.88017 34 ft 7 kts 237°
2026-04-29 14:52 19.08887 72.87958 33 ft 9 kts 269°
2026-04-29 14:52 19.08885 72.87824 31 ft 47 kts 269°
2026-04-29 14:52 19.08876 72.87182 27 ft 123 kts 269°
2026-04-29 14:52 19.08858 72.86051 123 ft 173 kts 269°
2026-04-29 14:53 19.08850 72.84809 892 ft 170 kts 270°
2026-04-29 14:53 19.08838 72.83575 1697 ft 171 kts 270°
2026-04-29 14:53 19.08822 72.82289 2348 ft 183 kts 270°
2026-04-29 14:53 19.08805 72.80907 2817 ft 195 kts 271°
2026-04-29 14:54 19.08787 72.79429 3177 ft 212 kts 270°
2026-04-29 14:54 19.08765 72.77814 3504 ft 232 kts 271°
2026-04-29 14:54 19.08928 72.76084 3966 ft 244 kts 292°
2026-04-29 14:54 19.09992 72.74667 4468 ft 256 kts 328°
2026-04-29 14:55 19.11717 72.74200 5112 ft 266 kts
2026-04-29 14:55 19.13562 72.74564 5877 ft 270 kts
2026-04-29 14:55 19.15430 72.74896 6566 ft 275 kts
2026-04-29 14:55 19.17328 72.75170 7226 ft 280 kts
2026-04-29 14:56 19.19279 72.75427 7856 ft 286 kts
2026-04-29 14:56 19.21279 72.75680 8485 ft 292 kts
2026-04-29 14:56 19.23316 72.75935 9087 ft 297 kts
2026-04-29 14:56 19.25414 72.76194 9689 ft 303 kts
2026-04-29 14:57 19.27508 72.76449 10274 ft 309 kts
2026-04-29 14:57 19.29703 72.76715 10583 ft 325 kts
2026-04-29 14:57 19.32034 72.76999 10852 ft 341 kts
2026-04-29 14:57 19.34404 72.77287 11235 ft 351 kts
2026-04-29 14:58 19.36866 72.77587 11867 ft 353 kts
2026-04-29 14:58 19.39298 72.77885 12513 ft 354 kts
2026-04-29 14:58 19.41760 72.78186 13140 ft 355 kts
2026-04-29 14:58 19.44219 72.78487 13747 ft 357 kts
2026-04-29 14:59 19.46692 72.78790 14326 ft 359 kts
2026-04-29 14:59 19.49205 72.79098 14891 ft 361 kts
2026-04-29 14:59 19.51724 72.79405 15452 ft 364 kts
2026-04-29 14:59 19.54219 72.79710 16002 ft 366 kts
2026-04-29 15:00 19.56785 72.80023 16570 ft 367 kts
2026-04-29 15:00 19.59315 72.80331 17122 ft 369 kts
2026-04-29 15:00 19.61893 72.80647 17673 ft 371 kts
2026-04-29 15:00 19.64439 72.80957 18197 ft 373 kts
2026-04-29 15:01 19.67036 72.81274 18720 ft 375 kts
2026-04-29 15:01 19.69655 72.81593 19233 ft 377 kts
2026-04-29 15:01 19.72271 72.81913 19741 ft 380 kts
2026-04-29 15:01 19.74912 72.82236 20248 ft 382 kts
2026-04-29 15:02 19.77567 72.82561 20745 ft 385 kts
2026-04-29 15:02 19.80214 72.82885 21226 ft 387 kts
2026-04-29 15:02 19.82898 72.83214 21714 ft 390 kts
2026-04-29 15:02 19.85609 72.83546 22197 ft 392 kts
2026-04-29 15:03 19.88367 72.83885 22672 ft 395 kts
2026-04-29 15:03 19.91107 72.84221 23087 ft 398 kts
2026-04-29 15:03 19.93871 72.84561 23485 ft 400 kts
2026-04-29 15:03 19.96628 72.84898 23858 ft 403 kts
2026-04-29 15:04 19.99455 72.85246 24239 ft 406 kts
2026-04-29 15:04 20.02274 72.85591 24590 ft 408 kts
2026-04-29 15:04 20.05088 72.85937 24938 ft 411 kts
2026-04-29 15:04 20.07956 72.86289 25279 ft 413 kts
2026-04-29 15:05 20.10802 72.86639 25608 ft 415 kts
2026-04-29 15:05 20.13703 72.86993 25928 ft 417 kts
2026-04-29 15:05 20.16595 72.87348 26230 ft 420 kts
2026-04-29 15:05 20.19503 72.87704 26525 ft 422 kts
2026-04-29 15:06 20.22458 72.88066 26822 ft 424 kts
2026-04-29 15:06 20.25388 72.88427 27118 ft 426 kts
2026-04-29 15:06 20.28349 72.88791 27400 ft 428 kts
2026-04-29 15:06 20.31325 72.89158 27665 ft 430 kts
2026-04-29 15:07 20.34284 72.89522 27921 ft 431 kts
2026-04-29 15:07 20.37302 72.89892 28200 ft 433 kts
2026-04-29 15:07 20.40276 72.90259 28546 ft 433 kts
2026-04-29 15:07 20.43286 72.90630 28948 ft 430 kts
2026-04-29 15:08 20.46278 72.90998 29384 ft 427 kts
2026-04-29 15:08 20.49203 72.91360 29832 ft 423 kts
2026-04-29 15:08 20.52107 72.91719 30286 ft 419 kts
2026-04-29 15:08 20.54994 72.92075 30697 ft 415 kts
2026-04-29 15:09 20.57868 72.92431 31092 ft 412 kts
2026-04-29 15:09 20.60717 72.92783 31463 ft 409 kts
2026-04-29 15:09 20.63540 72.93130 31807 ft 407 kts
2026-04-29 15:09 20.66356 72.93478 32146 ft 404 kts
2026-04-29 15:10 20.69169 72.93825 32497 ft 402 kts
2026-04-29 15:10 20.71928 72.94168 32852 ft 401 kts
2026-04-29 15:10 20.74714 72.94500 33199 ft 399 kts
2026-04-29 15:10 20.77473 72.94702 33548 ft 396 kts 359°
2026-04-29 15:11 20.80215 72.94814 33896 ft 394 kts 359°
2026-04-29 15:11 20.82956 72.94915 34216 ft 393 kts 359°
2026-04-29 15:11 20.85678 72.95013 34501 ft 392 kts 359°
2026-04-29 15:11 20.88437 72.95113 34758 ft 392 kts 359°
2026-04-29 15:12 20.91170 72.95212 35012 ft 392 kts 359°
2026-04-29 15:12 20.93006 72.95278 35167 ft 393 kts 359°
2026-04-29 15:12 20.96630 72.95409 35405 ft 394 kts 359°
2026-04-29 15:12 20.99418 72.95510 35577 ft 395 kts 359°
2026-04-29 15:13 21.02145 72.95609 35744 ft 396 kts 359°
2026-04-29 15:13 21.04932 72.95711 35900 ft 397 kts 359°
2026-04-29 15:13 21.07704 72.95812 36066 ft 397 kts 359°
2026-04-29 15:13 21.10452 72.95914 36227 ft 398 kts 359°
2026-04-29 15:14 21.13236 72.96113 36382 ft 400 kts
2026-04-29 15:14 21.16035 72.96476 36551 ft 402 kts
2026-04-29 15:14 21.18806 72.96995 36703 ft 405 kts
2026-04-29 15:15 21.24315 72.98522 36752 ft 410 kts 13°
2026-04-29 15:15 21.29716 73.00542 36759 ft 412 kts 15°
2026-04-29 15:16 21.35124 73.02627 36750 ft 411 kts 15°
2026-04-29 15:16 21.40527 73.04714 36749 ft 411 kts 15°
2026-04-29 15:17 21.45918 73.06797 36744 ft 411 kts 15°
2026-04-29 15:17 21.51288 73.08871 36743 ft 411 kts 15°
2026-04-29 15:18 21.56694 73.10963 36742 ft 411 kts 15°
2026-04-29 15:18 21.62069 73.13043 36748 ft 410 kts 14°
2026-04-29 15:19 21.67432 73.15122 36742 ft 410 kts 14°
2026-04-29 15:19 21.72799 73.17203 36742 ft 409 kts 14°
2026-04-29 15:20 21.78161 73.19282 36741 ft 410 kts 14°
2026-04-29 15:20 21.83544 73.21372 36740 ft 410 kts 14°
2026-04-29 15:21 21.88920 73.23463 36732 ft 410 kts 14°
2026-04-29 15:21 21.94288 73.25550 36740 ft 410 kts 14°
2026-04-29 15:22 21.99651 73.27637 36741 ft 409 kts 14°
2026-04-29 15:22 22.05037 73.29736 36744 ft 410 kts 14°
2026-04-29 15:23 22.10397 73.31825 36748 ft 410 kts 14°
2026-04-29 15:23 22.15789 73.33923 36751 ft 410 kts 14°
2026-04-29 15:24 22.21172 73.36021 36760 ft 410 kts 14°
2026-04-29 15:24 22.26529 73.38113 36755 ft 410 kts 14°
2026-04-29 15:25 22.31932 73.40226 36755 ft 411 kts 14°
2026-04-29 15:25 22.37281 73.42320 36759 ft 410 kts 14°
2026-04-29 15:26 22.42654 73.44428 36769 ft 410 kts 14°
2026-04-29 15:26 22.48033 73.46536 36786 ft 410 kts 14°
2026-04-29 15:27 22.53408 73.48649 36809 ft 411 kts 14°
2026-04-29 15:27 22.58777 73.50758 36805 ft 411 kts 13°
2026-04-29 15:28 22.64191 73.52889 36791 ft 411 kts 13°
2026-04-29 15:28 22.69569 73.55006 36767 ft 410 kts 13°
2026-04-29 15:29 22.74903 73.57109 36748 ft 410 kts 13°
2026-04-29 15:30 22.85685 73.61352 36744 ft 411 kts 13°
2026-04-29 15:30 22.91073 73.63474 36745 ft 411 kts 13°
2026-04-29 15:31 22.96425 73.65589 36743 ft 411 kts 14°
2026-04-29 15:31 23.01794 73.67741 36744 ft 411 kts 13°
2026-04-29 15:32 23.07213 73.69900 36740 ft 412 kts 13°
2026-04-29 15:32 23.12599 73.72039 36739 ft 412 kts 13°
2026-04-29 15:33 23.17977 73.74166 36733 ft 411 kts 13°
2026-04-29 15:33 23.23380 73.76305 36728 ft 411 kts 13°
2026-04-29 15:34 23.28768 73.78445 36725 ft 412 kts 13°
2026-04-29 15:34 23.34135 73.80577 36723 ft 411 kts 13°
2026-04-29 15:35 23.39535 73.82725 36726 ft 412 kts 13°
2026-04-29 15:35 23.44916 73.84868 36726 ft 412 kts 13°
2026-04-29 15:36 23.50313 73.87019 36720 ft 412 kts 13°
2026-04-29 15:36 23.55691 73.89164 36717 ft 413 kts 13°
2026-04-29 15:37 23.61113 73.91328 36721 ft 413 kts 13°
2026-04-29 15:37 23.66491 73.93475 36724 ft 414 kts 13°
2026-04-29 15:38 23.71904 73.95641 36724 ft 413 kts 13°
2026-04-29 15:38 23.77319 73.97809 36729 ft 414 kts 13°
2026-04-29 15:39 23.82754 73.99985 36732 ft 414 kts 13°
2026-04-29 15:39 23.88152 74.02149 36726 ft 415 kts 13°
2026-04-29 15:40 23.93591 74.04332 36730 ft 414 kts 13°
2026-04-29 15:40 23.98990 74.06503 36737 ft 415 kts 13°
2026-04-29 15:41 24.04448 74.08696 36743 ft 415 kts 13°
2026-04-29 15:41 24.09847 74.10859 36746 ft 415 kts 13°
2026-04-29 15:42 24.15299 74.13043 36749 ft 416 kts 12°
2026-04-29 15:42 24.20725 74.15219 36758 ft 415 kts 13°
2026-04-29 15:43 24.26136 74.17396 36771 ft 415 kts 13°
2026-04-29 15:43 24.31591 74.19597 36779 ft 415 kts 13°
2026-04-29 15:44 24.36998 74.21780 36784 ft 415 kts 13°
2026-04-29 15:44 24.42453 74.23987 36784 ft 415 kts 12°
2026-04-29 15:45 24.47849 74.26172 36790 ft 415 kts 12°
2026-04-29 15:45 24.53293 74.28378 36789 ft 415 kts 12°
2026-04-29 15:46 24.58696 74.30569 36787 ft 415 kts 12°
2026-04-29 15:46 24.64133 74.32777 36784 ft 415 kts 12°
2026-04-29 15:47 24.69557 74.34981 36788 ft 415 kts 12°
2026-04-29 15:47 24.74988 74.37189 36787 ft 415 kts 12°
2026-04-29 15:48 24.80395 74.39391 36791 ft 416 kts 12°
2026-04-29 15:48 24.85855 74.41615 36788 ft 415 kts 12°
2026-04-29 15:49 24.91274 74.43826 36781 ft 417 kts 12°
2026-04-29 15:49 24.96714 74.46049 36783 ft 416 kts 12°
2026-04-29 15:50 25.02152 74.48275 36782 ft 416 kts 12°
2026-04-29 15:50 25.07598 74.50504 36779 ft 415 kts 12°
2026-04-29 15:51 25.13005 74.52718 36779 ft 415 kts 12°
2026-04-29 15:51 25.18450 74.54942 36770 ft 415 kts 12°
2026-04-29 15:52 25.23866 74.57165 36767 ft 416 kts 12°
2026-04-29 15:52 25.29276 74.59391 36763 ft 415 kts 12°
2026-04-29 15:53 25.34713 74.61633 36755 ft 416 kts 12°
2026-04-29 15:53 25.40153 74.63877 36756 ft 416 kts 12°
2026-04-29 15:54 25.45574 74.66128 36754 ft 415 kts 12°
2026-04-29 15:54 25.50962 74.68384 36752 ft 416 kts 13°
2026-04-29 15:55 25.56395 74.70645 36756 ft 415 kts 12°
2026-04-29 15:55 25.61798 74.72890 36753 ft 415 kts 12°
2026-04-29 15:56 25.67204 74.75134 36749 ft 414 kts 12°
2026-04-29 15:56 25.72640 74.77390 36753 ft 416 kts 12°
2026-04-29 15:57 25.78054 74.79642 36748 ft 415 kts 12°
2026-04-29 15:57 25.83474 74.81896 36741 ft 416 kts 12°
2026-04-29 15:58 25.88873 74.84147 36737 ft 415 kts 12°
2026-04-29 15:58 25.94277 74.86398 36735 ft 415 kts 12°
2026-04-29 15:59 25.99690 74.88657 36731 ft 414 kts 12°
2026-04-29 15:59 26.05090 74.90912 36731 ft 414 kts 12°
2026-04-29 16:00 26.10502 74.93174 36733 ft 414 kts 12°
2026-04-29 16:00 26.15921 74.95434 36723 ft 414 kts 12°
2026-04-29 16:01 26.21299 74.97681 36719 ft 414 kts 12°
2026-04-29 16:01 26.26712 74.99939 36712 ft 414 kts 12°
2026-04-29 16:02 26.32126 75.02202 36713 ft 414 kts 12°
2026-04-29 16:02 26.37502 75.04454 36721 ft 414 kts 12°
2026-04-29 16:03 26.42902 75.06717 36721 ft 414 kts 12°
2026-04-29 16:03 26.48302 75.08976 36722 ft 416 kts 12°
2026-04-29 16:04 26.53745 75.11253 36721 ft 415 kts 12°
2026-04-29 16:04 26.59148 75.13516 36716 ft 415 kts 12°
2026-04-29 16:05 26.64562 75.15790 36715 ft 415 kts 11°
2026-04-29 16:05 26.69964 75.18057 36715 ft 415 kts 12°
2026-04-29 16:06 26.75386 75.20331 36715 ft 416 kts 12°
2026-04-29 16:06 26.80813 75.22611 36716 ft 416 kts 12°
2026-04-29 16:07 26.86229 75.24891 36716 ft 415 kts 12°
2026-04-29 16:07 26.91662 75.27181 36725 ft 416 kts 11°
2026-04-29 16:08 26.97076 75.29465 36729 ft 417 kts 12°
2026-04-29 16:08 26.99827 75.30624 36600 ft 419 kts 12°
2026-04-29 16:08 27.02551 75.31778 36323 ft 416 kts 12°
2026-04-29 16:08 27.05249 75.32920 36056 ft 414 kts 12°
2026-04-29 16:09 27.07941 75.34058 35787 ft 411 kts 12°
2026-04-29 16:09 27.10609 75.35188 35518 ft 407 kts 12°
2026-04-29 16:09 27.13268 75.36311 35247 ft 407 kts 12°
2026-04-29 16:09 27.15887 75.37543 34981 ft 411 kts 16°
2026-04-29 16:10 27.18461 75.38981 34673 ft 415 kts 19°
2026-04-29 16:10 27.20952 75.40607 34263 ft 421 kts 23°
2026-04-29 16:10 27.23402 75.42457 33722 ft 426 kts 27°
2026-04-29 16:10 27.25758 75.44511 33136 ft 432 kts 31°
2026-04-29 16:11 27.28011 75.46767 32476 ft 437 kts 35°
2026-04-29 16:11 27.30194 75.49146 31968 ft 438 kts 36°
2026-04-29 16:11 27.32366 75.51543 31420 ft 442 kts 37°
2026-04-29 16:11 27.34558 75.53964 30704 ft 450 kts 38°
2026-04-29 16:12 27.36804 75.56441 29762 ft 463 kts 39°
2026-04-29 16:12 27.38347 75.58142 29249 ft 466 kts 40°
2026-04-29 16:12 27.41453 75.61589 27978 ft 472 kts 40°
2026-04-29 16:12 27.43778 75.64176 27174 ft 472 kts 40°
2026-04-29 16:13 27.46111 75.66775 26382 ft 471 kts 41°
2026-04-29 16:13 27.48403 75.69339 25806 ft 465 kts 41°
2026-04-29 16:13 27.50671 75.71878 25710 ft 447 kts 40°
2026-04-29 16:13 27.52836 75.74297 25633 ft 431 kts 40°
2026-04-29 16:14 27.54916 75.76612 25574 ft 415 kts 40°
2026-04-29 16:14 27.56934 75.78855 25511 ft 400 kts 40°
2026-04-29 16:14 27.58856 75.80990 25457 ft 385 kts 39°
2026-04-29 16:14 27.60752 75.83098 25396 ft 371 kts 39°
2026-04-29 16:15 27.62531 75.85075 25345 ft 358 kts 39°
2026-04-29 16:15 27.64268 75.87035 25244 ft 347 kts 43°
2026-04-29 16:15 27.65528 75.89348 24973 ft 352 kts 70°
2026-04-29 16:15 27.65741 75.92083 24698 ft 355 kts 98°
2026-04-29 16:16 27.64872 75.94685 24342 ft 355 kts 124°
2026-04-29 16:16 27.63204 75.96651 23920 ft 350 kts 149°
2026-04-29 16:16 27.61005 75.97750 23465 ft 341 kts 174°
2026-04-29 16:16 27.58703 75.97823 23020 ft 328 kts 197°
2026-04-29 16:17 27.56607 75.96950 22601 ft 314 kts 219°
2026-04-29 16:17 27.54985 75.95401 22439 ft 303 kts 232°
2026-04-29 16:17 27.53529 75.93675 22396 ft 307 kts 232°
2026-04-29 16:17 27.52031 75.91912 22366 ft 309 kts 232°
2026-04-29 16:18 27.50538 75.90191 22357 ft 309 kts 231°
2026-04-29 16:18 27.49016 75.88458 22362 ft 309 kts 232°
2026-04-29 16:18 27.47735 75.86571 22341 ft 299 kts 251°
2026-04-29 16:18 27.47176 75.84371 22358 ft 290 kts 270°
2026-04-29 16:19 27.47321 75.82144 22368 ft 285 kts 287°
2026-04-29 16:19 27.48097 75.80134 22364 ft 284 kts 304°
2026-04-29 16:19 27.49434 75.78497 22352 ft 284 kts 322°
2026-04-29 16:19 27.51191 75.77442 22349 ft 289 kts 340°
2026-04-29 16:20 27.53173 75.77105 22354 ft 296 kts 358°
2026-04-29 16:20 27.55240 75.77576 22341 ft 307 kts 17°
2026-04-29 16:20 27.57186 75.78877 22024 ft 348 kts 35°
2026-04-29 16:20 27.59010 75.80844 21677 ft 382 kts 41°
2026-04-29 16:21 27.60897 75.83070 21315 ft 405 kts 41°
2026-04-29 16:21 27.62906 75.85397 20942 ft 417 kts 40°
2026-04-29 16:21 27.65036 75.87631 20574 ft 416 kts 37°
2026-04-29 16:21 27.67207 75.89754 20208 ft 414 kts 36°
2026-04-29 16:22 27.69382 75.91856 19841 ft 412 kts 36°
2026-04-29 16:22 27.71557 75.93951 19481 ft 410 kts 36°
2026-04-29 16:22 27.73710 75.96027 19120 ft 408 kts 36°
2026-04-29 16:22 27.75850 75.98093 18768 ft 406 kts 36°
2026-04-29 16:23 27.77997 76.00168 18402 ft 403 kts 36°
2026-04-29 16:23 27.80117 76.02218 18051 ft 401 kts 36°
2026-04-29 16:23 27.82232 76.04264 17693 ft 399 kts 36°
2026-04-29 16:23 27.84335 76.06300 17331 ft 398 kts 36°
2026-04-29 16:24 27.86448 76.08347 16979 ft 394 kts 36°
2026-04-29 16:24 27.88489 76.10326 16572 ft 384 kts 36°
2026-04-29 16:24 27.90444 76.12231 16445 ft 357 kts 36°
2026-04-29 16:24 27.92267 76.14008 16338 ft 335 kts 36°
2026-04-29 16:25 27.94033 76.15720 16218 ft 333 kts 36°
2026-04-29 16:25 27.95779 76.17407 16097 ft 333 kts 36°
2026-04-29 16:25 27.97534 76.19107 15983 ft 333 kts 36°
2026-04-29 16:25 27.99303 76.20821 15686 ft 334 kts 36°
2026-04-29 16:26 28.01073 76.22541 15294 ft 332 kts 36°
2026-04-29 16:26 28.02806 76.24227 14902 ft 332 kts 36°
2026-04-29 16:26 28.04556 76.25931 14553 ft 329 kts 36°
2026-04-29 16:26 28.06274 76.27605 14267 ft 324 kts 36°
2026-04-29 16:27 28.07971 76.29260 13962 ft 320 kts 36°
2026-04-29 16:27 28.09666 76.30913 13675 ft 316 kts 36°
2026-04-29 16:27 28.11323 76.32525 13394 ft 311 kts 36°
2026-04-29 16:27 28.12949 76.34099 13124 ft 307 kts 36°
2026-04-29 16:28 28.14562 76.35663 12806 ft 305 kts 36°
2026-04-29 16:28 28.16163 76.37219 12500 ft 302 kts 36°
2026-04-29 16:28 28.17749 76.38769 12148 ft 297 kts 36°
2026-04-29 16:28 28.19305 76.40289 11801 ft 292 kts 36°
2026-04-29 16:29 28.20819 76.41770 11719 ft 284 kts 36°
2026-04-29 16:29 28.22290 76.43225 11709 ft 278 kts 39°
2026-04-29 16:29 28.23555 76.44830 11672 ft 272 kts 51°
2026-04-29 16:29 28.24584 76.46642 11430 ft 270 kts 56°
2026-04-29 16:30 28.25511 76.48468 11193 ft 266 kts 57°
2026-04-29 16:30 28.26418 76.50285 10952 ft 262 kts 57°
2026-04-29 16:30 28.27313 76.52063 10711 ft 258 kts 56°
2026-04-29 16:30 28.28195 76.53796 10461 ft 255 kts 56°
2026-04-29 16:31 28.29078 76.55518 10206 ft 252 kts 56°
2026-04-29 16:31 28.29959 76.57233 9931 ft 250 kts 56°
2026-04-29 16:31 28.30842 76.58949 9647 ft 249 kts 56°
2026-04-29 16:31 28.31700 76.60617 9348 ft 248 kts 56°
2026-04-29 16:32 28.32561 76.62290 9069 ft 244 kts 56°
2026-04-29 16:32 28.33136 76.63407 8796 ft 244 kts 56°
2026-04-29 16:32 28.34256 76.65582 8366 ft 236 kts 54°
2026-04-29 16:32 28.35197 76.67068 8051 ft 224 kts 46°
2026-04-29 16:33 28.37263 76.69537 7435 ft 213 kts 41°
2026-04-29 16:33 28.38308 76.70734 7143 ft 212 kts 41°
2026-04-29 16:33 28.39333 76.71910 6841 ft 209 kts 41°
2026-04-29 16:34 28.40357 76.73088 6464 ft 208 kts 41°
2026-04-29 16:34 28.41356 76.74243 6088 ft 204 kts 41°
2026-04-29 16:34 28.42345 76.75385 5716 ft 202 kts 42°
2026-04-29 16:34 28.43322 76.76515 5438 ft 199 kts 42°
2026-04-29 16:35 28.44298 76.77646 5322 ft 200 kts 42°
2026-04-29 16:35 28.45264 76.78766 5128 ft 199 kts 43°
2026-04-29 16:35 28.46227 76.79884 4895 ft 197 kts 42°
2026-04-29 16:35 28.47193 76.81003 4647 ft 196 kts 43°
2026-04-29 16:36 28.48139 76.82100 4396 ft 194 kts 43°
2026-04-29 16:36 28.49084 76.83188 4143 ft 192 kts 40°
2026-04-29 16:36 28.50182 76.84037 3916 ft 189 kts 24°
2026-04-29 16:36 28.51410 76.84543 3610 ft 188 kts 17°
2026-04-29 16:37 28.52656 76.84968 3273 ft 186 kts 16°
2026-04-29 16:37 28.53892 76.85381 2944 ft 182 kts 16°
2026-04-29 16:37 28.55077 76.85780 2685 ft 175 kts 17°
2026-04-29 16:37 28.55861 76.86047 2622 ft 175 kts 19°
2026-04-29 16:38 28.57120 76.87151 2586 ft 177 kts 62°
2026-04-29 16:38 28.57425 76.88488 2592 ft 171 kts 82°
2026-04-29 16:38 28.57478 76.89816 2625 ft 170 kts 86°
2026-04-29 16:38 28.57471 76.91170 2626 ft 170 kts 88°
2026-04-29 16:39 28.57444 76.92512 2610 ft 170 kts 88°
2026-04-29 16:39 28.57411 76.93842 2603 ft 170 kts 88°
2026-04-29 16:39 28.57377 76.95193 2600 ft 171 kts 88°
2026-04-29 16:39 28.57343 76.96529 2575 ft 160 kts 89°
2026-04-29 16:40 28.57311 76.97726 2538 ft 146 kts 88°
2026-04-29 16:40 28.57284 76.98878 2371 ft 144 kts 88°
2026-04-29 16:40 28.57259 77.00023 2196 ft 143 kts 88°
2026-04-29 16:40 28.57232 77.01138 2026 ft 142 kts 88°
2026-04-29 16:41 28.57206 77.02268 1853 ft 141 kts 88°
2026-04-29 16:41 28.57180 77.03370 1679 ft 140 kts 89°
2026-04-29 16:41 28.57152 77.04479 1490 ft 139 kts 89°
2026-04-29 16:41 28.57131 77.05592 1332 ft 140 kts 89°
2026-04-29 16:42 28.57102 77.06698 1147 ft 140 kts 90°
2026-04-29 16:42 28.57079 77.07806 1004 ft 139 kts 90°
2026-04-29 16:42 28.57055 77.08915 834 ft 140 kts 90°
2026-04-29 16:42 28.57029 77.09977 780 ft 115 kts 90°
2026-04-29 16:43 28.57015 77.10581 780 ft 57 kts 92°
2026-04-29 16:43 28.57008 77.10895 780 ft 27 kts 92°
2026-04-29 16:43 28.57004 77.11104 780 ft 25 kts 91°
2026-04-29 16:43 28.57000 77.11298 780 ft 23 kts 91°
2026-04-29 16:44 28.56995 77.11479 780 ft 22 kts 91°
2026-04-29 16:44 28.56986 77.11601 780 ft 12 kts 114°
2026-04-29 16:44 28.56911 77.11646 780 ft 13 kts 172°
2026-04-29 16:44 28.56844 77.11665 780 ft 7 kts 135°
2026-04-29 16:45 28.56832 77.11729 780 ft 8 kts 91°
2026-04-29 16:45 28.56830 77.11801 780 ft 3 kts 91°
2026-04-29 16:45 28.56829 77.11815 780 ft 4 kts 91°
2026-04-29 16:45 28.56827 77.11865 780 ft 6 kts 107°
2026-04-29 16:46 28.56786 77.11889 780 ft 7 kts 178°
2026-04-29 16:46 28.56730 77.11889 780 ft 8 kts 179°
2026-04-29 16:46 28.56666 77.11889 780 ft 9 kts 181°
2026-04-29 16:46 28.56603 77.11886 780 ft 8 kts 182°
2026-04-29 16:47 28.56556 77.11881 780 ft 6 kts 192°
2026-04-29 16:47 28.56517 77.11871 780 ft 4 kts 194°
2026-04-29 16:47 28.56510 77.11868 780 ft 0 kts 194°
2026-04-29 16:47 28.56508 77.11868 780 ft 0 kts 194°